Flag for Cyprus Weather past 2 weeks in Famagusta, Northern Cyprus, Cyprus

Now
86 °F

Sunny.


Feels Like: 89 °F
Forecast: 70 / 86 °F
Wind: 22 mph from Southwest

Location: Larnaca Airport

Current Time: Jul 6, 2015 at 4:44:46 PM

Latest Report: Jul 6, 2015 at 4:00 PM


Visibility: 10 mi

Pressure: 29.77 "Hg

Humidity: 55%

Dew point: 68 °F

Location of FamagustaLocation

Historic Weather in Famagusta — Graph

°F

Famagusta temperature yesterday

Maximum temperature yesterday: 95 °F (at 6:30 PM)
Minimum temperature yesterday: 70 °F (at 4:00 AM)
Average temperature yesterday: 82 °F

Past Weeks' High & Low Weather Summary

 TemperatureHumidityPressure
High95 °F (Jul 5, 6:30 PM)100% (Jun 25, 10:00 PM)29.98 "Hg (Jun 25, 10:00 PM)
Low66 °F (Jun 23, 5:00 AM)19% (Jul 5, 7:00 PM)29.65 "Hg (Jun 26, 2:30 AM)
Average78 °F67%29.80 "Hg
* Reported Jun 21 3:00 PM — Jul 6 3:30 PM, Famagusta, Weather by CustomWeather, © 2015

Note: Actual official high and low records may vary slightly from our data, if they occured in-between our weather recording intervals... More about our weather records

Advertising

Famagusta weather history for previous 24 hours

 ConditionsComfort  
Time TempWeatherWind HumidityBarometerVisibility
3:30 PM
Mon, Jul 6
86 °FSunny.23 mph52%29.80 "Hg10 mi
3:00 PM88 °FSunny.22 mph35%29.80 "Hg10 mi
2:30 PM91 °FSunny.21 mph38%29.80 "Hg10 mi
2:00 PM91 °FSunny.21 mph30%29.80 "Hg10 mi
1:30 PM90 °FSunny.20 mph27%29.80 "Hg10 mi
1:00 PM90 °FSunny.18 mph31%29.80 "Hg10 mi
12:30 PM91 °FPassing clouds.18 mph23%29.80 "HgN/A
12:00 PM90 °FSunny.16 mph29%29.83 "Hg10 mi
11:30 AM90 °FPassing clouds.15 mph31%29.83 "HgN/A
11:00 AM88 °FSunny.14 mph40%29.83 "Hg10 mi
10:30 AM90 °FPassing clouds.9 mph31%29.83 "HgN/A
10:00 AM86 °FPassing clouds.9 mph52%29.80 "HgN/A
9:30 AM84 °FSunny.7 mph55%29.80 "Hg10 mi
9:00 AM84 °FPassing clouds.7 mph48%29.80 "HgN/A
8:30 AM82 °FPassing clouds.5 mph55%29.83 "HgN/A
8:00 AM82 °FPassing clouds.5 mph55%29.83 "HgN/A
7:30 AM81 °FPassing clouds.3 mph58%29.80 "HgN/A
7:00 AM79 °FSunny.2 mph51%29.83 "Hg10 mi
6:30 AM75 °FClear.3 mph54%29.83 "Hg10 mi
6:00 AM73 °FClear.5 mph50%29.83 "Hg10 mi
5:30 AM72 °FClear.6 mph50%29.80 "Hg10 mi
5:00 AM73 °FClear.3 mph50%29.80 "Hg10 mi
4:30 AM73 °FPassing clouds.6 mph53%29.80 "HgN/A
4:00 AM73 °FClear.6 mph53%29.80 "Hg10 mi
3:30 AM75 °FPassing clouds.6 mph50%29.80 "HgN/A
3:00 AM75 °FClear.7 mph54%29.80 "Hg10 mi
2:30 AM75 °FPassing clouds.3 mph57%29.80 "HgN/A
2:00 AM75 °FPassing clouds.3 mph57%29.80 "HgN/A
1:30 AM77 °FClear.7 mph57%29.80 "Hg10 mi
1:00 AM79 °FPassing clouds.3 mph79%29.80 "HgN/A
12:30 AM77 °FClear.1 mph61%29.83 "Hg10 mi
12:00 AM77 °FClear.5 mph83%29.83 "Hg10 mi
11:30 PM
Sun, Jul 5
79 °FPassing clouds.6 mph74%29.80 "HgN/A
11:00 PM82 °FClear.7 mph40%29.80 "Hg10 mi
10:30 PM84 °FPassing clouds.8 mph37%29.80 "HgN/A
10:00 PM84 °FClear.9 mph35%29.80 "Hg10 mi
9:30 PM84 °FPassing clouds.9 mph33%29.80 "HgN/A
9:00 PM86 °FSunny.10 mph29%29.80 "Hg10 mi
8:30 PM90 °FPassing clouds.12 mph24%29.80 "HgN/A
8:00 PM91 °FPassing clouds.9 mph23%29.80 "HgN/A
7:30 PM93 °FPassing clouds.13 mph21%29.80 "HgN/A
7:00 PM95 °FSunny.13 mph19%29.80 "Hg10 mi
6:30 PM95 °FPassing clouds.12 mph28%29.80 "HgN/A
6:00 PM90 °FPassing clouds.9 mph49%29.80 "HgN/A
5:30 PM90 °FPassing clouds.13 mph52%29.80 "HgN/A
5:00 PM88 °FPassing clouds.17 mph55%29.80 "HgN/A
4:30 PM88 °FPassing clouds.20 mph55%29.80 "HgN/A
4:00 PM90 °FPassing clouds.22 mph52%29.80 "HgN/A
Weather by CustomWeather, © 2015

See weather overviewHow to use our weather pages